| time (UTC) | temp C | wind direction | speed KPH | gust KPH | rain 1hr cm | rain 24hr cm | rain mn cm | humidity % | barometer mb |
| 20260507070019 | 15 | 236 | 3.2 | 11.3 | 0.00 | 0.00 | 0.00 | 63 | 1013.1 |
| 20260507064516 | 15 | 263 | 3.2 | 9.7 | 0.00 | 0.00 | 0.00 | 66 | 1013.1 |
| 20260507063025 | 15 | 194 | 3.2 | 9.7 | 0.00 | 0.00 | 0.00 | 67 | 1012.9 |
| 20260507061512 | 14 | 190 | 3.2 | 11.3 | 0.00 | 0.00 | 0.00 | 68 | 1013.0 |
| 20260507060024 | 13 | 185 | 6.4 | 14.5 | 0.00 | 0.00 | 0.00 | 69 | 1012.8 |
| 20260507054508 | 13 | 242 | 6.4 | 16.1 | 0.00 | 0.00 | 0.00 | 72 | 1012.7 |
| 20260507053006 | 13 | 241 | 8.0 | 12.9 | 0.00 | 0.00 | 0.00 | 75 | 1012.5 |
| 20260507051604 | 13 | 215 | 3.2 | 8.0 | 0.00 | 0.00 | 0.00 | 75 | 1012.4 |
| 20260507050101 | 13 | 240 | 3.2 | 11.3 | 0.00 | 0.00 | 0.00 | 73 | 1012.3 |
| 20260507044555 | 14 | 198 | 6.4 | 12.9 | 0.00 | 0.03 | 0.00 | 71 | 1012.1 |
| 20260507043052 | 14 | 238 | 8.0 | 17.7 | 0.00 | 0.03 | 0.00 | 70 | 1011.7 |
| 20260507041549 | 14 | 248 | 1.6 | 8.0 | 0.00 | 0.03 | 0.00 | 70 | 1011.5 |
| 20260507040048 | 14 | 196 | 0.0 | 11.3 | 0.00 | 0.03 | 0.00 | 71 | 1011.7 |
| 20260507034548 | 14 | 141 | 6.4 | 11.3 | 0.00 | 0.03 | 0.00 | 72 | 1011.5 |
| 20260507033048 | 14 | 181 | 4.8 | 17.7 | 0.00 | 0.03 | 0.00 | 72 | 1011.6 |
| 20260507031547 | 14 | 177 | 6.4 | 12.9 | 0.00 | 0.03 | 0.00 | 73 | 1011.6 |
| 20260507030045 | 14 | 246 | 11.3 | 17.7 | 0.00 | 0.03 | 0.00 | 72 | 1011.7 |
| 20260507024543 | 14 | 284 | 9.7 | 22.5 | 0.00 | 0.03 | 0.00 | 72 | 1011.4 |
| 20260507023041 | 14 | 161 | 3.2 | 16.1 | 0.00 | 0.03 | 0.00 | 75 | 1011.4 |
| 20260507021539 | 14 | 259 | 1.6 | 11.3 | 0.00 | 0.03 | 0.00 | 75 | 1011.4 |
| 20260507020043 | 15 | 254 | 4.8 | 11.3 | 0.00 | 0.03 | 0.00 | 74 | 1011.3 |
| 20260507014548 | 15 | 197 | 1.6 | 6.4 | 0.00 | 0.03 | 0.00 | 75 | 1011.4 |
| 20260507013136 | 15 | 276 | 8.0 | 17.7 | 0.00 | 0.03 | 0.00 | 75 | 1011.4 |
| 20260507011536 | 15 | 213 | 1.6 | 19.3 | 0.00 | 0.03 | 0.00 | 76 | 1011.4 |
| 20260507010045 | 15 | 183 | 1.6 | 11.3 | 0.00 | 0.03 | 0.00 | 77 | 1011.3 |
| 20260507004534 | 15 | 311 | 3.2 | 16.1 | 0.00 | 0.03 | 0.00 | 74 | 1011.5 |
| 20260507003031 | 15 | 217 | 11.3 | 22.5 | 0.00 | 0.03 | 0.00 | 74 | 1011.5 |
| 20260507001533 | 15 | 244 | 1.6 | 6.4 | 0.00 | 0.03 | 0.00 | 74 | 1011.4 |
| 20260507000027 | 15 | 292 | 9.7 | 17.7 | 0.00 | 0.03 | 0.00 | 73 | 1011.5 |
| 20260506234530 | 15 | 92 | 3.2 | 12.9 | 0.00 | 0.03 | 0.00 | 74 | 1011.5 |
| 20260506233022 | 15 | 345 | 1.6 | 12.9 | 0.00 | 0.03 | 0.00 | 74 | 1011.4 |
| 20260506231518 | 15 | 298 | 1.6 | 9.7 | 0.00 | 0.03 | 0.00 | 74 | 1011.5 |
| 20260506230014 | 15 | 276 | 8.0 | 16.1 | 0.00 | 0.03 | 0.00 | 73 | 1011.7 |
| 20260506224513 | 15 | 194 | 0.0 | 6.4 | 0.00 | 0.03 | 0.00 | 75 | 1011.9 |
| 20260506223012 | 15 | 193 | 0.0 | 8.0 | 0.00 | 0.03 | 0.00 | 75 | 1011.8 |
| 20260506221511 | 15 | 159 | 1.6 | 4.8 | 0.00 | 0.03 | 0.00 | 77 | 1012.0 |
| 20260506220017 | 15 | 159 | 0.0 | 3.2 | 0.00 | 0.03 | 0.00 | 76 | 1011.8 |
| 20260506214510 | 15 | 159 | 0.0 | 3.2 | 0.00 | 0.08 | 0.03 | 75 | 1011.8 |
| 20260506213007 | 15 | 93 | 1.6 | 6.4 | 0.00 | 0.08 | 0.03 | 74 | 1011.9 |
| 20260506211511 | 15 | 131 | 1.6 | 9.7 | 0.00 | 0.08 | 0.03 | 74 | 1011.8 |
| 20260506210012 | 15 | 42 | 0.0 | 4.8 | 0.00 | 0.08 | 0.03 | 73 | 1011.9 |
| 20260506204507 | 15 | 192 | 1.6 | 9.7 | 0.00 | 0.46 | 0.03 | 73 | 1011.8 |
| 20260506203006 | 15 | 343 | 3.2 | 9.7 | 0.00 | 0.46 | 0.03 | 74 | 1011.6 |
| 20260506201508 | 15 | 15 | 3.2 | 8.0 | 0.00 | 0.46 | 0.03 | 75 | 1011.5 |
| 20260506200010 | 15 | 315 | 4.8 | 9.7 | 0.00 | 0.46 | 0.03 | 74 | 1011.4 |
| 20260506194505 | 15 | 338 | 0.0 | 8.0 | 0.00 | 0.71 | 0.03 | 75 | 1011.3 |
| 20260506193004 | 15 | 349 | 6.4 | 11.3 | 0.00 | 0.71 | 0.03 | 75 | 1011.2 |
| 20260506191504 | 16 | 360 | 1.6 | 9.7 | 0.00 | 0.71 | 0.03 | 74 | 1010.8 |
| 20260506190004 | 16 | 122 | 1.6 | 8.0 | 0.00 | 0.71 | 0.03 | 74 | 1010.6 |
| 20260506184505 | 16 | 17 | 3.2 | 11.3 | 0.00 | 1.17 | 0.03 | 73 | 1010.4 |
| 20260506183005 | 16 | 44 | 1.6 | 12.9 | 0.00 | 1.17 | 0.03 | 73 | 1010.1 |
| 20260506181504 | 16 | 110 | 4.8 | 19.3 | 0.00 | 1.17 | 0.03 | 72 | 1009.8 |
| 20260506180005 | 16 | 188 | 4.8 | 16.1 | 0.00 | 1.17 | 0.03 | 70 | 1009.8 |
| 20260506174502 | 16 | 167 | 6.4 | 17.7 | 0.00 | 1.73 | 0.03 | 70 | 1009.9 |
| 20260506173001 | 17 | 286 | 4.8 | 14.5 | 0.00 | 1.73 | 0.03 | 70 | 1009.8 |
| 20260506171610 | 17 | 265 | 3.2 | 25.7 | 0.00 | 1.73 | 0.03 | 69 | 1009.6 |
| 20260506170112 | 17 | 142 | 8.0 | 22.5 | 0.00 | 1.73 | 0.03 | 69 | 1009.5 |
| 20260506164623 | 17 | 149 | 3.2 | 14.5 | 0.00 | 1.93 | 0.03 | 67 | 1009.5 |
| 20260506163107 | 17 | 84 | 6.4 | 16.1 | 0.00 | 1.93 | 0.03 | 67 | 1009.7 |
| 20260506161600 | 18 | 158 | 4.8 | 11.3 | 0.00 | 1.93 | 0.03 | 65 | 1009.7 |
| 20260506160111 | 19 | 171 | 4.8 | 14.5 | 0.00 | 1.93 | 0.03 | 62 | 1009.7 |
| 20260506154558 | 19 | 186 | 4.8 | 14.5 | 0.00 | 1.93 | 0.03 | 62 | 1009.8 |
| 20260506153101 | 20 | 113 | 4.8 | 14.5 | 0.00 | 1.93 | 0.03 | 60 | 1009.7 |
| 20260506151558 | 19 | 8 | 3.2 | 6.4 | 0.00 | 1.93 | 0.03 | 60 | 1009.8 |
| 20260506150057 | 18 | 190 | 6.4 | 17.7 | 0.00 | 1.93 | 0.03 | 60 | 1009.6 |
| 20260506144556 | 18 | 113 | 3.2 | 9.7 | 0.00 | 1.93 | 0.03 | 62 | 1009.4 |
| 20260506143055 | 18 | 74 | 3.2 | 16.1 | 0.00 | 1.93 | 0.03 | 63 | 1009.6 |
| 20260506141609 | 19 | 77 | 1.6 | 19.3 | 0.00 | 1.93 | 0.03 | 62 | 1009.8 |
| 20260506140052 | 19 | 319 | 4.8 | 19.3 | 0.00 | 1.93 | 0.03 | 60 | 1009.9 |
| 20260506134551 | 18 | 96 | 3.2 | 9.7 | 0.00 | 1.93 | 0.03 | 63 | 1010.2 |
| 20260506133057 | 19 | 359 | 1.6 | 14.5 | 0.00 | 1.93 | 0.03 | 60 | 1010.4 |
| 20260506131554 | 19 | 196 | 6.4 | 12.9 | 0.00 | 1.93 | 0.03 | 60 | 1010.4 |
| 20260506130049 | 19 | 320 | 4.8 | 17.7 | 0.00 | 1.93 | 0.03 | 59 | 1010.6 |
| 20260506124546 | 18 | 155 | 4.8 | 19.3 | 0.00 | 1.93 | 0.03 | 60 | 1010.6 |
| 20260506123046 | 18 | 14 | 3.2 | 17.7 | 0.00 | 1.93 | 0.03 | 62 | 1010.8 |
| 20260506121553 | 18 | 238 | 1.6 | 9.7 | 0.00 | 1.93 | 0.03 | 61 | 1010.8 |
| 20260506120107 | 18 | 298 | 3.2 | 16.1 | 0.00 | 1.93 | 0.03 | 63 | 1010.8 |
| 20260506114545 | 18 | 236 | 6.4 | 16.1 | 0.00 | 1.93 | 0.03 | 64 | 1010.6 |
| 20260506113041 | 18 | 164 | 4.8 | 12.9 | 0.00 | 1.93 | 0.03 | 66 | 1010.7 |
| 20260506111540 | 18 | 328 | 4.8 | 14.5 | 0.00 | 1.93 | 0.03 | 66 | 1010.9 |
| 20260506110035 | 17 | 243 | 3.2 | 14.5 | 0.00 | 1.93 | 0.03 | 68 | 1011.1 |
| 20260506104533 | 17 | 277 | 3.2 | 16.1 | 0.00 | 1.93 | 0.03 | 71 | 1011.1 |
| 20260506103033 | 16 | 241 | 4.8 | 19.3 | 0.00 | 1.93 | 0.03 | 72 | 1011.0 |
| 20260506101529 | 16 | 44 | 4.8 | 16.1 | 0.00 | 1.93 | 0.03 | 72 | 1011.0 |
| 20260506100030 | 16 | 180 | 4.8 | 12.9 | 0.00 | 1.93 | 0.03 | 72 | 1011.0 |
| 20260506094533 | 16 | 226 | 3.2 | 14.5 | 0.00 | 1.93 | 0.03 | 73 | 1010.9 |
| 20260506093041 | 16 | 109 | 6.4 | 14.5 | 0.00 | 1.93 | 0.03 | 73 | 1011.0 |
| 20260506091525 | 16 | 309 | 8.0 | 20.9 | 0.00 | 1.93 | 0.03 | 74 | 1011.0 |
| 20260506090023 | 16 | 156 | 9.7 | 22.5 | 0.00 | 1.93 | 0.03 | 73 | 1010.8 |
| 20260506084523 | 16 | 274 | 3.2 | 17.7 | 0.00 | 1.93 | 0.03 | 74 | 1010.7 |
| 20260506083019 | 15 | 195 | 3.2 | 17.7 | 0.00 | 1.93 | 0.03 | 75 | 1010.8 |
| 20260506081518 | 15 | 134 | 6.4 | 12.9 | 0.00 | 1.93 | 0.03 | 76 | 1010.5 |
| 20260506073012 | 14 | 129 | 6.4 | 17.7 | 0.00 | 1.93 | 0.03 | 79 | 1010.2 |
| 20260506071509 | 14 | 157 | 9.7 | 22.5 | 0.00 | 1.93 | 0.03 | 79 | 1010.2 |